Address 0x1b48c13bff3826bc6702212c75c50da7db05f97b 7

 
Ad
Ad
Txn Hash Method
Block
From
To
Value [Txn Fee]
0x77ed8b2d8b33e6b6ac7b31904ac4961ff10e1509ef03126c3c38e43af095071dWithdraw206268452021-10-26 9:29:562 days 11 hrs ago0x1b48c13bff3826bc6702212c75c50da7db05f97bOUT 0x7ceb23fd6bc0add59e62ac25578270cff1b9f6190 MATIC0.0005775
0x34a5d2e31aedc0ac5214ea3b23b50b8b26e8b0a4ef1df5841731378c0e1ddea5Withdraw206268212021-10-26 9:28:202 days 12 hrs ago0x1b48c13bff3826bc6702212c75c50da7db05f97bOUT 0x8dff5e27ea6b7ac08ebfdf9eb090f32ee9a30fcf0 MATIC0.01045551
0xbfe4f65b952410e294d0d71bb388fca5cc74ba43a9f3ec5ee1163851aed733c10x5ed54dad206137132021-10-26 0:27:102 days 21 hrs ago0x1b48c13bff3826bc6702212c75c50da7db05f97bOUT 0x44aaa9ebafb4557605de574d5e968589dc3a84d10 MATIC0.000619707
0xf95aa226b39ca5589d95a27ce22725e78634781d0f75790ceafb3fa47cf232330x5ed54dad206131232021-10-26 0:04:462 days 21 hrs ago0x1b48c13bff3826bc6702212c75c50da7db05f97bOUT 0x44aaa9ebafb4557605de574d5e968589dc3a84d10 MATIC0.00664599
0xf72d63e6d3485a4b3a97405430cbd8407579df759f152b7c7d348b77504ac78b0x5ed54dad206113742021-10-25 22:57:212 days 22 hrs ago0x1b48c13bff3826bc6702212c75c50da7db05f97bOUT 0x44aaa9ebafb4557605de574d5e968589dc3a84d10 MATIC0.00664599
0xa23be7e53b7aefecd2bb6fd7c4c37366443d80627aeaf9790b2ee6da9ed85711Approve206113452021-10-25 22:56:232 days 22 hrs ago0x1b48c13bff3826bc6702212c75c50da7db05f97bOUT 0x7dff46370e9ea5f0bad3c4e29711ad50062ea7a40 MATIC0.00149682
0xe21b19e68fd00d69dee83d2a06d127a0d86ac71edca3b6bb0ef3864b626c000dTransfer205345102021-10-23 20:15:195 days 1 hr ago0xc0899474fa0a2f650231befcd5c775c2d9ff04f1 IN 0x1b48c13bff3826bc6702212c75c50da7db05f97b0.001 MATIC0.000672
0x508432b709d564340de2b8876258a210c4428610f391be8b82cca7f0905ba6beDeposit205092442021-10-23 3:36:515 days 17 hrs ago0x1b48c13bff3826bc6702212c75c50da7db05f97bOUT 0x8dff5e27ea6b7ac08ebfdf9eb090f32ee9a30fcf0 MATIC0.00742452
0xa24f57d7bd7d16f7c676b48beafed0c6e6148b53d9f1bf45e83415cbbc0e67d8Approve205092392021-10-23 3:36:415 days 17 hrs ago0x1b48c13bff3826bc6702212c75c50da7db05f97bOUT 0x7ceb23fd6bc0add59e62ac25578270cff1b9f6190 MATIC0.00080436
0x266634db6db27849a01e212ed306233b43afe8bd80be98d019ae1eea8b4a014dApprove205091592021-10-23 3:33:575 days 17 hrs ago0x1b48c13bff3826bc6702212c75c50da7db05f97bOUT 0x7ceb23fd6bc0add59e62ac25578270cff1b9f6190 MATIC0.00140136
0xd883a44e683d84fe2ac032c907df5b02e590716b95e21a0e46b15d0c133bc7f5Withdraw204856472021-10-22 11:23:336 days 10 hrs ago0x1b48c13bff3826bc6702212c75c50da7db05f97bOUT 0x8dff5e27ea6b7ac08ebfdf9eb090f32ee9a30fcf0 MATIC0.01096887
0xd93eb2795f72624d21551beb91aa2032a121d7cd84b9d83a19f95c2b8c623903Deposit204844232021-10-22 10:35:056 days 10 hrs ago0x1b48c13bff3826bc6702212c75c50da7db05f97bOUT 0x8dff5e27ea6b7ac08ebfdf9eb090f32ee9a30fcf0 MATIC0.00697401
0xee0a7f363878e31a2ed3f037e827b3c80adc8b9abb31e661ad42061412f59eacSwap Exact Token...204844132021-10-22 10:34:416 days 10 hrs ago0x1b48c13bff3826bc6702212c75c50da7db05f97bOUT SushiSwap: SushiV2Router020 MATIC0.00258498
0xebb073c119b4830290ac9d1adf6a66c43a3c4f1d5518c2a77f19278df1b5b021Swap Exact Token...204843932021-10-22 10:34:016 days 10 hrs ago0x1b48c13bff3826bc6702212c75c50da7db05f97bOUT SushiSwap: SushiV2Router020 MATIC0.00335214
0x1ec381099bbcb0c3348670b87d0fac037b468718ace5cc8ce559079f6e83e56eSwap Exact Token...204843912021-10-22 10:33:576 days 10 hrs ago0x1b48c13bff3826bc6702212c75c50da7db05f97bOUT SushiSwap: SushiV2Router020 MATIC0.00335214
0x0b1eb9f85f483f05d017db3930fc4e7c07127fd5ca588f7a8809cc004539b045Borrow204843292021-10-22 10:31:496 days 10 hrs ago0x1b48c13bff3826bc6702212c75c50da7db05f97bOUT 0x8dff5e27ea6b7ac08ebfdf9eb090f32ee9a30fcf0 MATIC0.01297959
0xdad50bc9d20443361eeb426944d77663bd1c4cf6ebb68c103514dec0c12bc46f0xd3454a35204737882021-10-22 3:28:296 days 18 hrs ago0x1b48c13bff3826bc6702212c75c50da7db05f97bOUT 0x35784a624d4ffbc3594f4d16fa3801fef063241c0 MATIC0.03004941
0x5063a2e2564980386fd574aa8157a71f4319c12c16b83c34d5a14b5f5d661febSwap Exact Token...204701702021-10-22 0:58:336 days 20 hrs ago0x1b48c13bff3826bc6702212c75c50da7db05f97bOUT QuickSwap: Router0 MATIC0.0049179
0x0c243371716934c49973826e9c0bc23ba912a173d979d21d38b3423cbc7880f5Swap Exact Token...204701452021-10-22 0:57:436 days 20 hrs ago0x1b48c13bff3826bc6702212c75c50da7db05f97bOUT QuickSwap: Router0 MATIC0.0049179
0x6ce5dc3d6603c0944718071e9aad9f303b532efa2e4b05f80b5867508cc55578Swap Exact Token...204701252021-10-22 0:56:596 days 20 hrs ago0x1b48c13bff3826bc6702212c75c50da7db05f97bOUT QuickSwap: Router0 MATIC0.0049179
0xaacff120c14369f2a7a52dc8af8ca6028cd9eeb7bf2ace47d6a7c9f36908b50aSwap Exact Token...204701102021-10-22 0:56:296 days 20 hrs ago0x1b48c13bff3826bc6702212c75c50da7db05f97bOUT QuickSwap: Router0 MATIC0.00429294
0x184263f43c8fabbccf1957d18854c2e7fd2841cdcc30489b08592a2343de670fWithdraw204700822021-10-22 0:55:336 days 20 hrs ago0x1b48c13bff3826bc6702212c75c50da7db05f97bOUT 0x8dff5e27ea6b7ac08ebfdf9eb090f32ee9a30fcf0 MATIC0.01045002
0xc8eaef4a04c8ca5ade6dd153990bf29b92dc2542b191938090e6dba38f9bf7dbRepay204700142021-10-22 0:53:096 days 20 hrs ago0x1b48c13bff3826bc6702212c75c50da7db05f97bOUT 0x8dff5e27ea6b7ac08ebfdf9eb090f32ee9a30fcf0 MATIC0.00825966
0xf1dc1c4a642e919103318c3a27205abc3cf11d61654bb69df45f5a2f79483bd8Withdraw204699542021-10-22 0:51:096 days 20 hrs ago0x1b48c13bff3826bc6702212c75c50da7db05f97bOUT 0x8dff5e27ea6b7ac08ebfdf9eb090f32ee9a30fcf0 MATIC0.00901272
0x9f8474875fe30a0c618e5ae31f8b3ae18df984612a2376b0d3218975fa6a99c90xd3454a35204699182021-10-22 0:48:476 days 20 hrs ago0x1b48c13bff3826bc6702212c75c50da7db05f97bOUT 0x35784a624d4ffbc3594f4d16fa3801fef063241c0 MATIC0.06886293
[ Download CSV Export 
Parent Txn Hash Block From To Value
Loading

Contract Name:
0 MATIC

Compiler Version
0

Optimization Enabled:
0 MATIC

Other Settings:
-NA-
Block Transaction Gas Used Reward
Age Block Fee Address BC Fee Address Voting Power Jailed Incoming
Block Uncle Number Difficulty Gas Used Reward
Loading
Loading
Make sure to use the "Vote Down" button for any spammy posts, and the "Vote Up" for interesting conversations.